FW3266 Weather Reports


Display with metric or nautical units.
time (UTC)temp
F
wind
direction
speed
MPH
gust
MPH
rain 1hr
in
rain 24hr
in
rain mn
in
humidity
%
barometer
mb
20260506071057 61 241 8.0 13.0 0.00 0.00 0.00 78 1012.0
20260506070549 61 238 7.0 17.0 0.00 0.00 0.00 78 1012.0
20260506062004 61 255 6.0 16.0 0.00 0.00 0.00 77 1011.7
20260506061500 61 240 6.0 14.0 0.00 0.00 0.00 77 1011.7
20260506060955 61 229 6.0 14.0 0.00 0.00 0.00 77 1011.8
20260506060454 61 217 8.0 18.0 0.00 0.00 0.00 77 1011.8
20260506051417 61 267 7.0 13.0 0.00 0.00 0.00 75 1012.2
20260506050911 61 237 8.0 13.0 0.00 0.00 0.00 75 1012.3
20260506050702 61 228 7.0 14.0 0.00 0.00 0.00 75 1012.3
20260506050134 61 247 6.0 15.0 0.00 0.00 0.00 75 1012.3
20260506044903 61 252 8.0 14.0 0.00 0.00 0.00 75 1012.3
20260506044402 61 249 8.0 11.0 0.00 0.00 0.00 75 1012.3
20260506043903 61 239 5.0 11.0 0.00 0.00 0.00 75 1012.3
20260506043355 61 201 7.0 11.0 0.00 0.00 0.00 75 1012.3
20260506042855 61 234 6.0 11.0 0.00 0.00 0.00 75 1012.4
20260506042352 61 224 6.0 11.0 0.00 0.00 0.00 75 1012.5
20260506041853 61 274 7.0 12.0 0.00 0.00 0.00 75 1012.3
20260506041617 61 236 7.0 13.0 0.00 0.00 0.00 75 1012.4
20260506040845 61 212 6.0 13.0 0.00 0.00 0.00 75 1012.4
20260506040341 61 259 7.0 12.0 0.00 0.00 0.00 74 1012.3
20260506035834 61 259 6.0 14.0 0.00 0.00 0.00 74 1012.2
20260506035330 61 248 8.0 14.0 0.00 0.00 0.00 74 1012.2
20260506034824 61 217 6.0 12.0 0.00 0.00 0.00 74 1012.2
20260506034555 61 252 7.0 13.0 0.00 0.00 0.00 74 1012.0
20260506033819 61 251 7.0 14.0 0.00 0.00 0.00 73 1012.0
20260506033312 61 243 7.0 14.0 0.00 0.00 0.00 73 1011.9
20260506032812 61 251 6.0 13.0 0.00 0.00 0.00 73 1011.8
20260506032309 61 244 7.0 13.0 0.00 0.00 0.00 73 1011.7
20260506031801 61 221 7.0 12.0 0.00 0.00 0.00 72 1011.7
20260506031256 61 233 6.0 11.0 0.00 0.00 0.00 72 1011.9
20260506030759 61 231 5.0 12.0 0.00 0.00 0.00 72 1011.7
20260506030250 61 238 8.0 12.0 0.00 0.00 0.00 71 1011.5
20260506025745 61 247 7.0 12.0 0.00 0.00 0.00 71 1011.7
20260506025515 61 238 6.0 13.0 0.00 0.00 0.00 71 1011.7
20260506025009 60 255 8.0 13.0 0.00 0.00 0.00 72 1011.6
20260506024234 60 237 7.0 14.0 0.00 0.00 0.00 71 1011.6
20260506023728 61 249 8.0 14.0 0.00 0.00 0.00 71 1011.4
20260506023515 61 257 7.0 13.0 0.00 0.00 0.00 71 1011.5
20260506022717 61 221 6.0 13.0 0.00 0.00 0.00 71 1011.4
20260506022213 61 237 8.0 15.0 0.00 0.00 0.00 71 1011.5
20260506021714 61 248 8.0 15.0 0.00 0.00 0.00 71 1011.5
20260506021206 61 259 7.0 14.0 0.00 0.00 0.00 71 1011.5
20260506020701 61 229 5.0 12.0 0.00 0.00 0.00 70 1011.6
20260506020154 61 193 7.0 12.0 0.00 0.00 0.00 70 1011.6
20260506015927 61 254 6.0 13.0 0.00 0.00 0.00 70 1011.6
20260506015142 61 245 7.0 13.0 0.00 0.00 0.00 70 1011.6
20260506014644 61 238 6.0 12.0 0.00 0.00 0.00 70 1011.6
20260506014146 62 243 6.0 14.0 0.00 0.00 0.00 70 1011.7
20260506013638 62 245 5.0 14.0 0.00 0.00 0.00 70 1011.7
20260506013133 62 203 7.0 14.0 0.00 0.00 0.00 70 1011.6
20260506012627 62 234 7.0 14.0 0.00 0.00 0.00 70 1011.5
20260506012359 62 235 7.0 14.0 0.00 0.00 0.00 70 1011.5
20260506011617 62 252 6.0 16.0 0.00 0.00 0.00 70 1011.4
20260506011113 62 264 8.0 16.0 0.00 0.00 0.00 70 1011.3
20260506010612 62 245 6.0 11.0 0.00 0.00 0.00 69 1011.4
20260506010107 62 250 7.0 13.0 0.00 0.00 0.00 69 1011.4
20260506005606 62 242 6.0 13.0 0.00 0.00 0.00 69 1011.3
20260506005101 62 246 7.0 12.0 0.00 0.00 0.00 69 1011.2
20260506004603 62 221 8.0 11.0 0.00 0.00 0.00 69 1011.3
20260506004326 62 240 7.0 13.0 0.00 0.00 0.00 69 1011.2
20260506003832 62 245 7.0 15.0 0.00 0.00 0.00 68 1011.2
20260506003048 62 236 8.0 15.0 0.00 0.00 0.00 68 1011.2
20260506002541 62 245 8.0 14.0 0.00 0.00 0.00 68 1011.2
20260506002042 62 257 8.0 12.0 0.00 0.00 0.00 67 1011.0
20260506001539 62 239 7.0 14.0 0.00 0.00 0.00 67 1010.7
20260506001030 63 236 8.0 17.0 0.00 0.00 0.00 67 1010.6
20260506000527 63 259 8.0 17.0 0.00 0.00 0.00 67 1010.4
20260506000020 63 250 6.0 15.0 0.00 0.00 0.00 66 1010.3
20260505235747 63 259 7.0 15.0 0.00 0.00 0.00 66 1010.3
20260505235017 64 271 6.0 12.0 0.00 0.00 0.00 65 1010.3
20260505234510 64 231 7.0 12.0 0.00 0.00 0.00 65 1010.1
20260505234005 64 242 7.0 16.0 0.00 0.00 0.00 64 1010.1
20260505233458 64 279 7.0 16.0 0.00 0.00 0.00 64 1010.0
20260505233000 64 237 8.0 14.0 0.00 0.00 0.00 64 1010.1
20260505232455 64 238 7.0 16.0 0.00 0.00 0.00 63 1009.9
20260505231947 65 266 9.0 17.0 0.00 0.00 0.00 64 1009.9
20260505231724 65 217 7.0 17.0 0.00 0.00 0.00 64 1009.7
20260505231214 64 252 9.0 20.0 0.00 0.00 0.00 64 1009.5
20260505230437 64 255 7.0 20.0 0.00 0.00 0.00 65 1009.4
20260505225932 65 238 6.0 14.0 0.00 0.00 0.00 65 1009.3
20260505225705 65 245 7.0 14.0 0.00 0.00 0.00 64 1009.4
20260505225157 65 256 5.0 15.0 0.00 0.00 0.00 65 1009.5
20260505224414 65 176 7.0 16.0 0.00 0.00 0.00 63 1009.4
20260505223909 66 210 8.0 16.0 0.00 0.00 0.00 62 1009.5
20260505223403 66 262 6.0 16.0 0.00 0.00 0.00 62 1009.6
20260505222858 67 250 10.0 15.0 0.00 0.00 0.00 60 1009.5
20260505222352 68 226 6.0 11.0 0.00 0.00 0.00 59 1009.4
20260505221849 68 217 7.0 19.0 0.00 0.00 0.00 58 1009.5
20260505221348 69 259 9.0 19.0 0.00 0.00 0.00 56 1009.3
20260505220840 69 238 6.0 11.0 0.00 0.00 0.00 55 1009.3
20260505220341 69 219 6.0 14.0 0.00 0.00 0.00 54 1009.3
20260505215837 70 242 6.0 14.0 0.00 0.00 0.00 54 1009.2
20260505215331 70 232 8.0 19.0 0.00 0.00 0.00 53 1009.2
20260505214828 70 240 7.0 19.0 0.00 0.00 0.00 52 1009.2
20260505214326 71 245 7.0 21.0 0.00 0.00 0.00 53 1009.1
20260505214059 71 207 11.0 21.0 0.00 0.00 0.00 52 1009.2
20260505213324 71 212 5.0 15.0 0.00 0.00 0.00 54 1009.2
20260505212815 71 257 5.0 13.0 0.00 0.00 0.00 55 1009.2
20260505212315 71 231 7.0 13.0 0.00 0.00 0.00 55 1009.1
20260505211811 71 182 6.0 16.0 0.00 0.00 0.00 55 1009.0
20260505211305 71 244 6.0 16.0 0.00 0.00 0.00 55 1009.0
20260505210759 71 244 7.0 19.0 0.00 0.00 0.00 56 1009.0
20260505210253 71 198 7.0 19.0 0.00 0.00 0.00 57 1009.0
20260505205748 71 212 7.0 16.0 0.00 0.00 0.00 56 1009.0
20260505205243 71 236 7.0 22.0 0.00 0.00 0.00 56 1009.3
20260505204739 72 255 7.0 22.0 0.00 0.00 0.00 54 1009.0
20260505204231 73 213 6.0 14.0 0.00 0.00 0.00 54 1009.0
20260505203725 73 192 5.0 13.0 0.00 0.00 0.00 54 1009.1
20260505203220 73 239 7.0 20.0 0.00 0.00 0.00 53 1009.1
20260505202720 73 241 8.0 21.0 0.00 0.00 0.00 53 1009.2
20260505202214 73 203 8.0 21.0 0.00 0.00 0.00 53 1009.0
20260505201710 73 180 5.0 15.0 0.00 0.00 0.00 53 1009.1
20260505201433 73 238 7.0 12.0 0.00 0.00 0.00 52 1009.1
20260505200703 73 243 9.0 23.0 0.00 0.00 0.00 51 1009.1
20260505200157 74 239 11.0 23.0 0.00 0.00 0.00 51 1009.2
20260505195652 74 192 7.0 19.0 0.00 0.00 0.00 51 1009.2
20260505195146 74 199 6.0 22.0 0.00 0.00 0.00 52 1009.3
20260505194641 75 242 10.0 22.0 0.00 0.00 0.00 50 1009.3
20260505194138 76 229 8.0 16.0 0.00 0.00 0.00 49 1009.3
20260505193637 76 193 9.0 31.0 0.00 0.00 0.00 49 1009.3
20260505193128 76 245 11.0 31.0 0.00 0.00 0.00 48 1009.2
20260505192625 77 214 7.0 21.0 0.00 0.00 0.00 50 1009.3
20260505192117 76 197 7.0 21.0 0.00 0.00 0.00 48 1009.3
20260505191614 77 259 9.0 18.0 0.00 0.00 0.00 46 1009.3
20260505191106 78 187 7.0 12.0 0.00 0.00 0.00 46 1009.3
20260505190601 78 245 6.0 9.0 0.00 0.00 0.00 47 1009.3
20260505190055 78 245 5.0 10.0 0.00 0.00 0.00 46 1009.4
20260505185550 78 233 6.0 10.0 0.00 0.00 0.00 47 1009.5
20260505185045 78 222 5.0 9.0 0.00 0.00 0.00 47 1009.5
20260505184819 78 295 5.0 11.0 0.00 0.00 0.00 47 1009.5
20260505184033 77 255 4.0 15.0 0.00 0.00 0.00 50 1009.6
20260505183805 77 233 6.0 18.0 0.00 0.00 0.00 49 1009.6
20260505183030 77 230 9.0 18.0 0.00 0.00 0.00 50 1009.8
20260505182521 77 174 6.0 15.0 0.00 0.00 0.00 50 1009.9
20260505182023 76 204 6.0 15.0 0.00 0.00 0.00 53 1010.0
20260505181749 77 229 6.0 15.0 0.00 0.00 0.00 53 1010.1
20260505181014 77 189 6.0 14.0 0.00 0.00 0.00 52 1010.1
20260505180509 77 216 5.0 15.0 0.00 0.00 0.00 52 1010.0
20260505180007 77 200 7.0 17.0 0.00 0.00 0.00 52 1010.0
20260505175503 77 235 9.0 17.0 0.00 0.00 0.00 50 1010.1
20260505175003 76 172 9.0 19.0 0.00 0.00 0.00 50 1010.2
20260505174735 77 231 8.0 19.0 0.00 0.00 0.00 51 1010.1
20260505173946 77 184 5.0 17.0 0.00 0.00 0.00 51 1010.2
20260505173447 77 210 6.0 17.0 0.00 0.00 0.00 50 1010.1
20260505173216 77 225 5.0 23.0 0.00 0.00 0.00 50 1010.2
20260505172434 77 231 6.0 23.0 0.00 0.00 0.00 48 1010.1
20260505171926 78 201 5.0 12.0 0.00 0.00 0.00 50 1010.2
20260505171422 78 264 5.0 15.0 0.00 0.00 0.00 48 1010.2
20260505170917 78 240 5.0 17.0 0.00 0.00 0.00 51 1010.5
20260505170415 78 226 6.0 17.0 0.00 0.00 0.00 50 1010.5
20260505165912 79 217 6.0 18.0 0.00 0.00 0.00 50 1010.7
20260505165412 78 233 8.0 18.0 0.00 0.00 0.00 49 1010.7
20260505164905 79 229 6.0 11.0 0.00 0.00 0.00 49 1010.6
20260505164401 79 245 4.0 11.0 0.00 0.00 0.00 47 1010.7
20260505163857 79 253 5.0 15.0 0.00 0.00 0.00 47 1010.7
20260505163356 79 210 6.0 15.0 0.00 0.00 0.00 47 1010.6
20260505162849 79 200 4.0 12.0 0.00 0.00 0.00 47 1010.7
20260505162349 79 224 6.0 20.0 0.00 0.00 0.00 48 1010.8
20260505162123 79 248 7.0 20.0 0.00 0.00 0.00 49 1010.8
20260505161339 79 236 5.0 11.0 0.00 0.00 0.00 46 1010.8
20260505160836 79 243 4.0 16.0 0.00 0.00 0.00 49 1011.1
20260505160336 79 221 6.0 16.0 0.00 0.00 0.00 49 1010.8
20260505153311 76 230 6.0 10.0 0.00 0.00 0.00 52 1011.1
20260505153305 75 245 4.0 10.0 0.00 0.00 0.00 50 1011.1
20260505152243 75 274 4.0 13.0 0.00 0.00 0.00 52 1011.2
20260505152010 76 245 6.0 13.0 0.00 0.00 0.00 50 1011.2
20260505151230 76 183 4.0 10.0 0.00 0.00 0.00 53 1011.1
20260505150726 75 244 4.0 10.0 0.00 0.00 0.00 54 1011.2
20260505150219 74 232 4.0 10.0 0.00 0.00 0.00 54 1011.2
20260505140637 69 242 4.0 8.0 0.00 0.00 0.00 61 1011.3
20260505140411 69 258 4.0 9.0 0.00 0.00 0.00 63 1011.4
20260505124815 63 246 4.0 9.0 0.00 0.00 0.00 70 1011.4
20260505124045 62 248 4.0 8.0 0.00 0.00 0.00 71 1011.4
20260505124041 63 252 6.0 9.0 0.00 0.00 0.00 70 1011.5
20260505123026 62 252 4.0 9.0 0.00 0.00 0.00 72 1011.3
20260505122520 61 254 3.0 9.0 0.00 0.00 0.00 73 1011.3
20260505122247 61 247 4.0 8.0 0.00 0.00 0.00 74 1011.4
20260505121523 60 200 4.0 7.0 0.00 0.00 0.00 74 1011.5
20260505121517 60 243 4.0 8.0 0.00 0.00 0.00 74 1011.4
20260505120502 60 245 4.0 12.0 0.00 0.00 0.00 75 1011.4
20260505120235 59 219 4.0 13.0 0.00 0.00 0.00 75 1011.2
20260505115725 59 233 6.0 13.0 0.00 0.00 0.00 75 1011.3
20260505114952 58 253 4.0 8.0 0.00 0.00 0.00 76 1011.4
20260505114448 58 193 4.0 8.0 0.00 0.00 0.00 76 1011.4
20260505113940 58 231 4.0 9.0 0.00 0.00 0.00 77 1011.5
20260505113437 58 252 4.0 9.0 0.00 0.00 0.00 77 1011.5
20260505112936 57 266 4.0 7.0 0.00 0.00 0.00 78 1011.6
20260505112430 57 243 3.0 7.0 0.00 0.00 0.00 78 1011.6
20260505111927 56 267 4.0 7.0 0.00 0.00 0.00 79 1011.6
20260505111655 56 244 3.0 6.0 0.00 0.00 0.00 80 1011.6
20260505111154 56 233 4.0 6.0 0.00 0.00 0.00 80 1011.6
20260505110406 55 237 3.0 6.0 0.00 0.00 0.00 81 1011.6
20260505110140 55 245 3.0 6.0 0.00 0.00 0.00 81 1011.5
20260505110136 55 246 3.0 6.0 0.00 0.00 0.00 81 1011.5
20260505102044 53 246 3.0 5.0 0.00 0.00 0.00 83 1011.6
20260505101309 53 245 3.0 7.0 0.00 0.00 0.00 83 1011.5
20260505100804 53 246 3.0 7.0 0.00 0.00 0.00 84 1011.4
20260505100258 53 248 4.0 5.0 0.00 0.00 0.00 84 1011.6
20260505095758 53 240 3.0 5.0 0.00 0.00 0.00 84 1011.6
20260505095528 53 260 2.0 7.0 0.00 0.00 0.00 84 1011.6
20260505095024 53 244 4.0 8.0 0.00 0.00 0.00 84 1011.6
20260505094246 52 240 4.0 8.0 0.00 0.00 0.00 84 1011.7
20260505093742 52 236 4.0 7.0 0.00 0.00 0.00 84 1011.8
20260505093235 52 260 4.0 7.0 0.00 0.00 0.00 84 1011.7
20260505092727 52 259 3.0 7.0 0.00 0.00 0.00 84 1011.7
20260505092231 52 231 4.0 7.0 0.00 0.00 0.00 84 1011.6
20260505091725 52 251 4.0 7.0 0.00 0.00 0.00 83 1011.7
20260505091457 52 247 3.0 8.0 0.00 0.00 0.00 83 1011.8
20260505090954 52 243 4.0 8.0 0.00 0.00 0.00 84 1011.8
20260505090215 52 248 3.0 7.0 0.00 0.00 0.00 83 1011.7
20260505085708 52 239 3.0 7.0 0.00 0.00 0.00 84 1011.7
20260505085210 52 241 3.0 6.0 0.00 0.00 0.00 83 1011.7
20260505084702 52 233 3.0 6.0 0.00 0.00 0.00 83 1011.6
20260505084203 52 244 3.0 6.0 0.00 0.00 0.00 83 1011.7
20260505083658 52 238 3.0 6.0 0.00 0.00 0.00 83 1011.6
20260505083159 52 241 4.0 6.0 0.00 0.00 0.00 83 1011.7
20260505082651 52 239 3.0 6.0 0.00 0.00 0.00 83 1011.7
20260505082418 52 254 3.0 6.0 0.00 0.00 0.00 83 1011.7
20260505081912 52 245 3.0 6.0 0.00 0.00 0.00 82 1011.7
20260505081142 52 231 4.0 6.0 0.00 0.00 0.00 82 1011.8
20260505080636 52 240 3.0 5.0 0.00 0.00 0.00 82 1011.9
20260505080131 52 232 4.0 5.0 0.00 0.00 0.00 82 1011.9
20260505075631 52 234 3.0 5.0 0.00 0.00 0.00 82 1011.9
20260505075118 52 214 3.0 6.0 0.00 0.00 0.00 81 1011.8
20260505074611 53 255 3.0 7.0 0.00 0.00 0.00 81 1011.8
20260505074105 52 245 4.0 7.0 0.00 0.00 0.00 81 1011.9
20260505073602 52 233 4.0 7.0 0.00 0.00 0.00 81 1011.9
20260505073047 52 246 3.0 7.0 0.00 0.00 0.00 81 1012.0
20260505072548 53 203 4.0 7.0 0.00 0.00 0.00 81 1012.0
20260505072045 53 251 3.0 6.0 0.00 0.00 0.00 80 1011.9
20260505071543 53 248 2.0 6.0 0.00 0.00 0.00 80 1012.0